Home > Weather > Coeur d'Alene > Past weeks

Flag for USA Past Weather in Coeur d'Alene, Idaho, USA — Yesterday and Last 2 Weeks

Now
63 °F

Clear.


Feels Like: 63 °F
Forecast: 54 / 84 °F
Wind: 8 mph from Southeast

Location: Coeur d'Alene Weather Reporting System

Current Time: Jul 1, 2016 at 4:45:47 AM

Latest Report: Jul 1, 2016 at 4:15 AM


Visibility: 10 mi

Pressure: 29.95 "Hg (27.73 "Hg at 655m altitude)

Humidity: 56%

Dew Point: 46 °F

Location of Coeur d'AleneLocation

Past Weather in Coeur d'Alene — Graph

°F

Coeur d'Alene Temperature Yesterday

Maximum temperature yesterday: 88 °F (at 3:15 PM)
Minimum temperature yesterday: 57 °F (at 2:35 AM)
Average temperature yesterday: 74 °F

High & Low Weather Summary for the Past Weeks

 TemperatureHumidityPressure
High93 °F (Jun 29, 2:55 PM)100% (Jun 24, 10:55 PM)30.39 "Hg (Jun 24, 10:55 PM)
Low39 °F (Jun 17, 3:15 AM)17% (Jun 27, 3:55 PM)29.83 "Hg (Jun 16, 3:15 AM)
Average64 °F55%30.06 "Hg
* Reported Jun 16 3:15 AM — Jul 1 3:35 AM, Coeur d'Alene, Weather by CustomWeather, © 2016

Note: Actual official high and low records may vary slightly from our data, if they occured in-between our weather recording intervals... More about our weather records

Advertising

Coeur d'Alene Weather History for the Previous 24 Hours

Scroll right to see more
 ConditionsComfort  
Time TempWeatherWind HumidityBarometerVisibility
3:35 AM
Fri, Jul 1
63 °FClear.5 mph56%29.95 "Hg10 mi
3:15 AM63 °FClear.6 mph56%29.95 "Hg10 mi
2:55 AM63 °FClear.9 mph56%29.95 "Hg10 mi
2:35 AM64 °FClear.9 mph52%29.95 "Hg10 mi
2:15 AM64 °FClear.9 mph52%29.95 "Hg10 mi
1:55 AM64 °FClear.9 mph52%29.95 "Hg10 mi
1:35 AM66 °FClear.8 mph52%29.95 "Hg10 mi
1:15 AM66 °FClear.10 mph52%29.94 "Hg10 mi
12:55 AM66 °FClear.9 mph52%29.95 "Hg10 mi
12:35 AM66 °FClear.8 mph52%29.95 "Hg10 mi
12:15 AM64 °FClear.6 mph56%29.95 "Hg10 mi
11:55 PM
Thu, Jun 30
68 °FClear.7 mph53%29.94 "Hg10 mi
11:35 PM68 °FClear.8 mph49%29.94 "Hg10 mi
11:15 PM68 °FClear.3 mph53%29.93 "Hg10 mi
10:55 PM66 °FClear.6 mph52%29.93 "Hg10 mi
10:35 PM66 °FClear.6 mph49%29.93 "Hg10 mi
10:15 PM73 °FClear.8 mph41%29.93 "Hg10 mi
9:55 PM73 °FClear.6 mph41%29.92 "Hg10 mi
9:35 PM73 °FSunny.6 mph38%29.92 "Hg10 mi
9:15 PM70 °FSunny.5 mph43%29.91 "Hg10 mi
8:55 PM73 °FSunny.No wind44%29.90 "Hg10 mi
8:35 PM73 °FSunny.No wind50%29.90 "Hg10 mi
8:15 PM77 °FSunny.3 mph44%29.90 "Hg10 mi
7:55 PM81 °FSunny.5 mph37%29.89 "Hg10 mi
7:35 PM82 °FSunny.5 mph30%29.89 "Hg10 mi
7:15 PM84 °FSunny.8 mph27%29.89 "Hg10 mi
6:55 PM84 °FSunny.7 mph27%29.89 "Hg10 mi
6:35 PM86 °FSunny.7 mph25%29.90 "Hg10 mi
6:15 PM88 °FSunny.7 mph25%29.90 "Hg10 mi
5:55 PM88 °FSunny.6 mph25%29.90 "Hg10 mi
5:35 PM86 °FSunny.No wind27%29.91 "Hg10 mi
5:15 PM88 °FSunny.9 mph25%29.92 "Hg10 mi
4:55 PM88 °FSunny.9 mph25%29.92 "Hg10 mi
4:35 PM88 °FSunny.9 mph25%29.93 "Hg10 mi
4:15 PM88 °FSunny.8 mph25%29.94 "Hg10 mi
3:55 PM88 °FSunny.6 mph27%29.95 "Hg10 mi
3:35 PM88 °FSunny.9 mph29%29.96 "Hg10 mi
3:15 PM88 °FSunny.9 mph29%29.96 "Hg10 mi
2:55 PM86 °FSunny.10 mph31%29.97 "Hg10 mi
2:35 PM86 °FSunny.8 mph33%29.98 "Hg10 mi
2:15 PM86 °FSunny.9 mph31%29.98 "Hg10 mi
1:55 PM84 °FSunny.12 mph35%29.99 "Hg10 mi
1:35 PM84 °FSunny.13 mph35%30.00 "Hg10 mi
1:15 PM82 °FSunny.13 mph37%30.01 "Hg10 mi
12:55 PM82 °FSunny.13 mph37%30.01 "Hg10 mi
12:35 PM81 °FSunny.10 mph42%30.02 "Hg10 mi
12:15 PM81 °FSunny.5 mph39%30.02 "Hg10 mi
11:55 AM81 °FSunny.9 mph39%30.02 "Hg10 mi
11:35 AM79 °FSunny.13 mph45%30.02 "Hg9 mi
11:15 AM79 °FSunny.8 mph42%30.03 "Hg10 mi
10:55 AM75 °FSunny.13 mph47%30.03 "Hg10 mi
10:35 AM75 °FSunny.13 mph44%30.03 "Hg10 mi
10:15 AM73 °FSunny.13 mph50%30.02 "Hg10 mi
9:55 AM73 °FSunny.13 mph47%30.03 "Hg10 mi
9:35 AM73 °FSunny.13 mph50%30.03 "Hg10 mi
9:15 AM72 °FSunny.12 mph50%30.03 "Hg10 mi
8:55 AM72 °FSunny.10 mph50%30.03 "Hg10 mi
8:35 AM70 °FSunny.8 mph53%30.03 "Hg10 mi
8:15 AM70 °FSunny.9 mph53%30.03 "Hg10 mi
7:55 AM70 °FSunny.8 mph53%30.03 "Hg10 mi
7:35 AM70 °FSunny.5 mph50%30.03 "Hg10 mi
7:15 AM68 °FSunny.3 mph60%30.02 "Hg10 mi
6:55 AM66 °FSunny.8 mph64%30.02 "Hg10 mi
6:35 AM66 °FSunny.10 mph64%30.01 "Hg10 mi
6:15 AM66 °FSunny.12 mph60%30.00 "Hg10 mi
5:55 AM64 °FSunny.9 mph64%30.00 "Hg10 mi
5:35 AM64 °FClear.9 mph64%29.99 "Hg10 mi
5:15 AM64 °FClear.9 mph64%29.99 "Hg10 mi
4:55 AM66 °FClear.10 mph60%29.99 "Hg10 mi
4:35 AM66 °FClear.10 mph60%29.98 "Hg10 mi
4:15 AM64 °FClear.10 mph68%29.97 "Hg10 mi
Weather by CustomWeather, © 2016

See weather overviewHow to use our weather pages